Location: Waco, TX
(31.5480°N, 97.1670°W)
Time: 16:18:30
(UTC-06:00)

ISS - Pass Details

Date: 09 November 2018
Orbit: 402 x 409 km, 51.6° (Epoch: 14 November)

Event Time Altitude Azimuth Distance (km) Brightness Sun altitude
Rises 22:35:21 0° 181° (S) 2,294 - -63.7°
Reaches altitude 10° 22:38:34 10° 146° (SE) 1,441 - -64.3°
Maximum altitude 22:39:41 11° 125° (SE) 1,361 - -64.5°
Drops below altitude 10° 22:40:49 10° 105° (ESE) 1,445 - -64.7°
Sets 22:44:04 0° 70° (ENE) 2,308 - -65.3°
